Wetterdaten: aktuell Sonntag, 21.04.2019 18:44
Datum Zeit Temperatur Bodentemp. Luftfeuchte Luftdruck Regen Wind Richtung Richtung Sonnenschein
21.04.2019 18:44 22,1 C 13,1 C 5 % 1017 hPa 0,0 l/m 13,5 km/h (3 Bft) O-SO45 120 0 min
21.04.2019 18:39 22,7 C 13,1 C 5 % 1017 hPa 0,0 l/m 12,7 km/h (3 Bft) O-SO22.5 110 0 min
21.04.2019 18:34 23,2 C 13,2 C 5 % 1017 hPa 0,0 l/m 10,4 km/h (2 Bft) O-SO22.5 110 0 min
21.04.2019 18:29 23,4 C 13,5 C 5 % 1017 hPa 0,0 l/m 13,7 km/h (3 Bft) O-SO22.5 105 0 min
21.04.2019 18:24 22,2 C 13,5 C 5 % 1017 hPa 0,0 l/m 13,8 km/h (3 Bft) O-SO22.5 110 0 min
21.04.2019 18:19 22,2 C 13,4 C 5 % 1017 hPa 0,0 l/m 15,6 km/h (3 Bft) O-SO22.5 115 0 min
21.04.2019 18:14 22,2 C 13,4 C 5 % 1017 hPa 0,0 l/m 15,6 km/h (3 Bft) O-SO22.5 105 0 min
21.04.2019 18:09 22,4 C 13,3 C 5 % 1017 hPa 0,0 l/m 13,3 km/h (3 Bft) SO45 125 0 min
21.04.2019 18:04 22,5 C 13,5 C 5 % 1017 hPa 0,0 l/m 14,7 km/h (3 Bft) O-SO22.5 120 0 min
21.04.2019 18:00 22,6 C 13,6 C 5 % 1017 hPa 0,0 l/m 13,5 km/h (3 Bft) O-SO67.5 110 0 min
21.04.2019 17:54 22,7 C 13,6 C 5 % 1017 hPa 0,0 l/m 15,0 km/h (3 Bft) O-SO45 110 0 min
21.04.2019 17:49 22,9 C 13,5 C 5 % 1017 hPa 0,0 l/m 12,7 km/h (3 Bft) O-SO67.5 105 0 min
21.04.2019 17:44 22,8 C 13,6 C 5 % 1017 hPa 0,0 l/m 6,8 km/h (2 Bft) O22.5 85 0 min
21.04.2019 17:39 22,9 C 14,0 C 5 % 1017 hPa 0,0 l/m 14,0 km/h (3 Bft) O-SO45 120 0 min
21.04.2019 17:34 22,9 C 14,0 C 5 % 1018 hPa 0,0 l/m 12,8 km/h (3 Bft) O-SO67.5 105 0 min
21.04.2019 17:34 22,9 C 14,0 C 5 % 1018 hPa 0,0 l/m 12,8 km/h (3 Bft) O-SO67.5 105 0 min
21.04.2019 17:29 23,0 C 14,0 C 5 % 1018 hPa 0,0 l/m 13,9 km/h (3 Bft) SO22.5 125 0 min
21.04.2019 17:24 23,0 C 14,2 C 5 % 1018 hPa 0,0 l/m 10,3 km/h (2 Bft) O-SO45 105 0 min
21.04.2019 17:19 23,0 C 14,4 C 5 % 1018 hPa 0,0 l/m 9,6 km/h (2 Bft) O-SO22.5 115 0 min
21.04.2019 17:15 23,0 C 14,7 C 5 % 1018 hPa 0,0 l/m 14,4 km/h (3 Bft) O-SO45 115 0 min
21.04.2019 17:09 23,1 C 14,8 C 5 % 1018 hPa 0,0 l/m 10,5 km/h (2 Bft) O-SO22.5 110 0 min
21.04.2019 17:04 23,1 C 15,1 C 5 % 1018 hPa 0,0 l/m 16,6 km/h (3 Bft) SO22.5 125 0 min
21.04.2019 16:59 23,2 C 15,8 C 5 % 1018 hPa 0,0 l/m 12,0 km/h (2 Bft) SO67.5 125 0 min
21.04.2019 16:54 23,1 C 14,9 C 5 % 1018 hPa 0,0 l/m 13,5 km/h (3 Bft) SO45 125 0 min
21.04.2019 16:49 23,4 C 14,2 C 5 % 1018 hPa 0,0 l/m 12,8 km/h (3 Bft) O-SO22.5 120 0 min
21.04.2019 16:44 23,4 C 14,0 C 5 % 1018 hPa 0,0 l/m 17,6 km/h (3 Bft) O45 100 0 min
21.04.2019 16:39 23,4 C 14,0 C 5 % 1018 hPa 0,0 l/m 8,9 km/h (2 Bft) O45 85 0 min
21.04.2019 16:34 23,2 C 14,0 C 5 % 1018 hPa 0,0 l/m 14,3 km/h (3 Bft) SO22.5 140 0 min
21.04.2019 16:29 23,2 C 13,9 C 5 % 1018 hPa 0,0 l/m 10,9 km/h (2 Bft) O45 100 0 min
21.04.2019 16:24 23,1 C 13,9 C 5 % 1018 hPa 0,0 l/m 11,5 km/h (2 Bft) O-NO67.5 60 0 min
21.04.2019 16:19 23,1 C 13,9 C 5 % 1018 hPa 0,0 l/m 14,8 km/h (3 Bft) O45 100 0 min
21.04.2019 16:14 23,0 C 13,9 C 5 % 1018 hPa 0,0 l/m 19,1 km/h (3 Bft) O-SO22.5 120 0 min
21.04.2019 16:09 23,1 C 13,7 C 5 % 1018 hPa 0,0 l/m 12,3 km/h (2 Bft) S-SO45 150 0 min
21.04.2019 16:04 23,0 C 13,8 C 5 % 1019 hPa 0,0 l/m 13,5 km/h (3 Bft) O-SO45 110 0 min
21.04.2019 16:00 22,8 C 13,5 C 5 % 1019 hPa 0,0 l/m 10,1 km/h (2 Bft) O67.5 100 0 min
21.04.2019 15:54 22,9 C 13,6 C 5 % 1019 hPa 0,0 l/m 11,8 km/h (2 Bft) O67.5 85 0 min
21.04.2019 15:49 22,8 C 13,5 C 5 % 1019 hPa 0,0 l/m 12,6 km/h (3 Bft) O-SO45 105 0 min
21.04.2019 15:44 22,8 C 13,6 C 5 % 1019 hPa 0,0 l/m 17,3 km/h (3 Bft) SO22.5 125 0 min
21.04.2019 15:39 22,9 C 13,5 C 5 % 1019 hPa 0,0 l/m 18,4 km/h (3 Bft) O-SO22.5 115 5 min
21.04.2019 15:34 23,0 C 13,5 C 5 % 1019 hPa 0,0 l/m 17,6 km/h (3 Bft) O-NO67.5 75 5 min
21.04.2019 15:29 23,4 C 13,5 C 5 % 1019 hPa 0,0 l/m 6,4 km/h (2 Bft) O45 90 5 min
21.04.2019 15:24 23,1 C 13,4 C 5 % 1019 hPa 0,0 l/m 9,4 km/h (2 Bft) SO45 125 5 min
21.04.2019 15:19 22,9 C 13,5 C 5 % 1019 hPa 0,0 l/m 14,8 km/h (3 Bft) O-SO45 105 5 min
21.04.2019 15:14 22,9 C 13,5 C 5 % 1019 hPa 0,0 l/m 23,0 km/h (4 Bft) SO22.5 125 5 min
21.04.2019 15:09 22,5 C 13,1 C 5 % 1019 hPa 0,0 l/m 22,8 km/h (4 Bft) O-SO45 120 5 min
21.04.2019 15:04 22,4 C 13,1 C 5 % 1019 hPa 0,0 l/m 15,0 km/h (3 Bft) O45 90 5 min
21.04.2019 14:59 22,3 C 13,2 C 5 % 1019 hPa 0,0 l/m 18,6 km/h (3 Bft) O45 90 5 min
21.04.2019 14:54 22,4 C 13,3 C 5 % 1019 hPa 0,0 l/m 17,8 km/h (3 Bft) O45 95 5 min
21.04.2019 14:49 22,5 C 13,3 C 5 % 1020 hPa 0,0 l/m 16,2 km/h (3 Bft) O-NO45 70 4 min
_ Min-Zeit 06:09 06:44 19:04 17:39 - 22:40 - - -
Minimum _ 3,9 C -2,0 C 5 % 1017 hPa - 0,0 km/h (0 Bft) - - -
_ Max-Zeit 15:29 16:59 07:09 20:59 19:04 15:14 - - 09:30
Maximum _ 23,4 C 15,8 C 93 % 1027 hPa 0,0 l/m 23,0 km/h
SO (4 Bft)
- - 6 min
Durchschnitt _ 15,0 C 6,9 C 28 % 1023 hPa #0,0 l/m 7,5 km/h (2 Bft) O - #6:40 h